Location: Unspecified
(0.0000°N, 0.0000°E)
Time: 22:40:53
(UTC+00:00)

ISIS 1 - Visible Passes

Search period start: 30 May 2024 00:00
Search period end: 09 June 2024 00:00
Orbit: 577 x 3444 km, 88.4° (Epoch: 30 May)

Date Brightness Start Highest point End Pass type
(mag) Time Alt. Az. Time Alt. Az. Time Alt. Az.
04 Jun 11.1 22:38:14 12° NNW 22:38:14 12° NNW 22:38:50 10° NNW visible
05 Jun 10.9 22:00:24 15° N 22:00:24 15° N 22:01:52 10° N visible
06 Jun 10.8 21:22:34 14° NNE 21:22:34 14° NNE 21:23:57 10° NNE visible
07 Jun 11.1 22:52:11 13° NNW 22:52:11 13° NNW 22:53:17 10° NNW visible
08 Jun 10.7 22:14:21 20° NNW 22:14:21 20° NNW 22:17:14 10° N visible
